Theta_e
313 315 318 318 309 307 312 313 312 316 321 324 325 325 323 326 327 323 327 325 336 341 336 329 328 328 325 327 328 329 332 333 335 335 335 328 318 313 321 329 330 329 327 321 314 314 313 314 314
314 318 320 316 309 310 311 310 313 318 323 324 325 325 329 329 332 330 334 330 325 337 340 331 327 326 328 330 329 330 330 334 332 333 327 318 314 313 324 327 326 323 319 316 315 319 317 317 308
315 318 317 307 306 312 311 311 312 317 318 324 323 324 327 332 329 327 334 334 330 336 341 333 328 324 327 332 331 328 328 329 326 319 319 314 312 315 324 321 318 317 314 328 321 321 320 316 316
317 316 313 310 313 311 312 312 312 313 322 325 324 323 323 324 323 324 325 334 333 332 334 332 331 329 330 331 330 326 323 321 320 318 317 312 312 315 317 316 316 315 316 317 319 321 321 320 319
318 315 308 311 311 311 310 312 313 316 322 325 325 323 323 323 324 325 323 324 331 332 331 332 332 329 330 330 327 325 323 321 319 319 316 311 311 316 317 317 321 314 316 318 319 321 321 321 320
315 312 309 311 311 311 311 314 318 320 324 326 325 324 326 325 324 323 329 330 331 328 327 329 331 329 328 328 327 325 323 322 318 319 313 311 316 317 316 323 316 316 318 319 320 321 322 320 320
311 308 310 311 312 312 313 316 323 325 325 325 325 326 324 324 324 323 328 327 331 328 326 328 329 333 328 328 328 326 324 323 316 315 313 313 318 314 315 316 317 318 318 319 320 320 321 320 319
316 308 312 310 311 311 312 317 321 323 324 326 325 325 323 323 328 328 330 331 330 329 328 327 327 328 331 328 330 328 325 325 319 316 312 311 317 313 313 316 320 319 319 319 319 319 319 319 318
314 310 310 312 311 313 314 315 319 322 324 325 327 326 323 326 334 331 332 332 330 330 328 325 325 325 327 328 327 328 326 324 320 322 314 318 313 313 313 318 320 320 320 319 318 318 317 317 317
310 309 311 310 310 312 314 313 314 322 324 325 326 325 323 328 332 330 329 330 332 330 329 329 327 326 327 327 324 330 327 325 322 327 320 315 313 314 314 315 317 319 319 319 318 318 317 316 315
311 312 311 313 315 314 312 315 318 321 322 324 325 325 323 329 331 332 332 329 328 330 330 328 326 326 325 326 329 328 326 325 325 326 318 314 314 315 315 314 312 310 310 311 314 316 316 314 312
313 312 312 314 316 316 316 318 325 322 323 327 326 326 328 329 329 328 329 328 328 329 330 326 326 324 327 327 327 328 328 324 324 324 317 314 315 316 316 316 315 314 312 312 313 313 312 310 309
311 312 315 317 317 317 317 317 321 326 325 328 329 330 330 329 328 327 328 327 327 328 328 328 326 324 325 326 326 326 325 323 323 323 317 315 315 316 317 318 318 318 316 316 316 315 313 310 309
314 314 315 316 316 315 318 320 324 322 325 331 325 327 328 330 327 326 328 327 327 328 328 328 327 324 323 324 327 326 325 323 321 319 316 315 316 316 317 318 319 319 318 318 318 318 317 313 309
316 315 312 313 315 316 317 317 323 321 323 329 325 324 326 327 325 324 328 325 326 327 327 327 327 325 325 324 324 322 322 317 317 321 319 315 315 317 317 317 319 319 319 319 320 320 319 318 312
316 313 314 313 315 316 317 317 315 319 322 329 328 327 327 326 323 324 326 324 325 326 326 327 326 324 324 323 322 321 317 317 319 317 316 319 316 316 317 317 317 319 319 319 320 320 320 319 316
312 314 314 315 315 317 318 317 316 322 326 324 323 326 326 324 325 322 326 323 323 324 325 325 324 323 322 322 321 319 315 316 317 318 317 317 318 316 316 316 317 318 319 319 320 320 320 320 319
315 316 315 316 316 315 316 316 314 321 323 323 324 326 325 321 322 321 322 322 322 323 324 325 324 323 322 321 320 319 316 318 318 316 320 316 316 317 316 316 316 317 318 319 319 320 320 320 319
314 316 316 314 314 316 314 313 314 318 322 322 325 326 325 320 319 321 321 321 322 323 323 322 323 323 322 320 319 317 317 317 316 315 316 318 320 317 316 316 316 316 316 318 319 319 320 320 320
315 316 315 314 314 315 315 315 315 316 320 322 323 325 325 321 318 321 322 320 321 321 322 322 322 322 323 321 319 316 314 319 320 321 319 318 317 316 316 316 316 316 317 318 319 320 320 321 320
314 315 315 314 314 314 315 315 315 317 320 322 322 323 324 323 319 320 321 320 320 321 321 320 320 321 321 320 318 320 317 317 321 319 316 318 318 318 318 320 320 318 320 321 321 320 320 321 321
315 314 315 316 316 317 316 318 316 316 316 321 321 322 323 325 319 319 318 320 321 320 321 319 319 321 321 320 318 317 317 316 320 318 317 320 318 317 318 318 315 315 317 317 317 320 320 321 322
316 315 316 317 316 316 317 318 316 317 318 318 320 322 323 325 322 321 320 318 319 320 320 321 321 321 321 320 318 318 319 315 315 316 320 319 318 316 316 315 314 315 316 317 319 316 317 320 321
317 317 317 316 316 318 317 317 316 316 317 319 319 322 323 323 325 322 322 318 317 319 320 320 319 320 320 320 320 319 319 317 316 316 318 315 314 315 315 315 315 314 315 318 319 320 321 321 320
316 315 317 319 319 320 316 318 318 317 315 316 317 321 322 324 325 324 324 320 317 317 318 318 319 319 320 320 320 318 316 317 316 315 315 314 314 314 315 316 315 314 314 318 320 320 321 322 321
315 315 317 322 321 319 319 321 320 318 317 318 318 319 323 323 324 325 324 323 318 317 316 315 315 317 318 319 320 320 320 318 317 317 318 315 314 314 314 315 314 314 315 316 317 320 321 322 323
314 317 316 317 319 321 319 319 318 318 316 315 316 322 324 324 325 325 325 325 322 317 316 315 315 314 314 315 316 317 318 318 318 317 317 318 316 314 314 314 314 314 315 318 318 318 319 321 323
314 315 318 317 321 323 320 321 320 320 318 315 316 320 323 324 324 325 325 326 325 323 318 316 315 316 316 314 314 314 314 314 314 314 314 314 314 315 315 316 317 319 320 321 321 322 322 321 319
314 315 317 317 317 320 321 319 315 318 317 317 313 318 322 323 324 324 325 325 325 325 324 321 318 316 316 317 316 316 316 316 315 315 316 317 317 318 319 320 321 323 324 321 321 322 322 320 318
313 314 315 317 319 317 317 318 316 315 316 315 315 317 321 321 322 323 324 325 325 325 326 325 322 320 318 317 317 317 317 319 320 321 322 322 323 324 324 324 324 325 322 319 321 321 322 320 318
Wind_Speed
5 3 1 0 4 5 3 5 2 4 1 1 4 2 4 2 2 3 4 8 4 25 28 33 33 33 36 35 32 30 31 32 33 34 32 26 24 24 28 29 28 27 24 23 23 23 25 26 25
5 3 1 2 4 3 5 4 5 6 3 8 4 4 3 5 6 4 5 5 7 15 25 35 35 34 34 35 34 31 32 34 33 33 28 24 23 26 30 29 28 27 25 24 26 25 26 24 25
4 3 1 4 3 3 4 5 7 5 12 6 2 4 3 4 5 4 7 8 7 14 25 30 31 33 36 38 36 35 37 36 35 29 22 24 26 29 31 30 30 27 26 27 25 25 25 24 24
3 2 4 4 3 5 6 7 9 6 5 11 3 5 5 9 4 7 7 11 11 14 21 29 31 31 34 37 38 38 37 36 31 28 25 25 29 32 33 32 30 28 27 27 27 26 25 23 23
3 2 4 1 4 4 4 11 14 5 4 5 5 4 5 9 11 11 9 14 16 16 21 26 26 33 35 35 33 37 35 33 32 26 23 28 32 35 34 31 30 28 26 27 26 25 24 22 21
3 2 3 2 5 5 5 10 7 5 2 1 4 4 5 7 8 9 7 8 14 16 19 22 25 29 35 36 34 33 33 32 31 31 26 33 34 36 34 32 30 28 27 25 24 23 23 22 20
5 3 4 2 4 6 4 7 3 5 4 7 5 3 4 8 10 10 7 11 7 17 14 12 23 33 38 31 29 34 36 34 34 31 32 36 37 37 35 32 31 29 26 24 24 24 23 20 19
4 4 2 3 2 7 6 5 9 7 10 7 7 6 5 6 4 5 3 4 9 11 10 7 12 25 39 41 31 35 33 36 35 34 38 38 40 37 33 32 31 27 24 22 22 23 20 17 16
4 3 3 4 4 6 16 2 5 6 8 8 9 12 6 7 3 3 4 3 10 15 16 15 15 24 30 29 29 29 36 37 38 40 41 41 41 37 34 34 31 27 24 21 21 21 19 18 15
4 3 8 6 5 6 20 5 10 4 4 10 14 15 12 7 5 7 5 6 10 11 16 17 17 14 21 28 38 46 46 42 38 40 45 44 42 38 35 33 30 27 23 20 19 18 17 14 12
6 6 4 8 17 13 6 6 6 6 5 21 8 12 11 8 7 7 8 9 13 16 11 18 18 15 13 25 46 41 51 43 39 41 44 45 43 40 36 33 31 28 23 20 17 15 15 13 11
2 10 8 11 10 8 3 4 4 12 14 3 6 5 9 8 7 8 9 10 10 16 20 21 17 13 8 7 46 48 55 46 39 41 43 46 46 41 37 33 29 26 23 21 18 16 14 12 12
5 6 8 13 22 18 13 13 8 16 21 8 5 7 7 8 7 8 8 8 12 13 15 22 21 15 11 16 39 56 54 51 42 38 42 44 43 40 37 32 28 26 23 20 17 15 12 11 11
5 7 15 18 24 14 5 1 1 17 13 12 7 5 7 9 6 6 7 7 10 17 15 19 22 21 14 16 44 51 47 43 39 39 41 41 40 38 35 31 28 25 22 19 16 13 11 10 9
5 5 8 8 6 5 6 5 9 18 10 13 8 5 6 7 6 6 7 4 4 18 14 18 20 22 19 21 30 35 43 45 39 37 36 35 36 36 31 29 26 23 20 19 17 12 10 9 9
2 4 4 4 3 2 6 8 7 9 13 14 11 7 7 7 6 7 6 5 4 13 21 18 19 22 27 32 43 43 45 41 37 36 36 34 36 31 28 28 24 22 21 18 14 10 10 9 7
4 3 4 8 4 2 2 8 1 1 8 12 10 10 9 7 7 7 6 6 3 9 22 23 22 28 31 39 40 44 44 39 40 40 38 36 29 32 32 28 23 23 20 16 13 10 8 7 7
6 4 4 7 3 4 5 12 11 11 13 19 11 11 11 11 9 6 7 7 7 7 13 19 26 29 32 36 38 35 44 38 38 40 36 38 30 28 28 27 26 23 19 17 14 12 10 8 8
4 3 3 8 5 4 9 7 15 7 12 15 17 13 13 12 9 10 9 9 10 10 10 13 20 33 38 37 35 38 40 36 37 40 35 35 37 34 30 27 25 20 19 17 15 15 12 11 12
4 4 7 10 6 6 11 14 12 4 6 18 20 20 16 15 13 12 11 12 14 12 13 13 15 27 35 36 38 38 40 36 33 36 34 31 32 31 29 27 22 22 19 18 18 17 16 15 16
6 10 5 8 7 5 4 7 6 2 5 6 18 25 18 19 19 16 14 13 15 15 16 15 17 23 29 33 37 36 36 35 33 35 35 34 31 29 26 22 22 21 18 19 19 20 20 20 19
9 9 9 6 3 4 4 6 5 6 7 6 14 24 25 23 21 17 15 14 14 16 19 19 18 22 26 33 42 38 41 44 38 40 38 34 31 29 27 24 24 21 20 22 22 23 24 24 24
9 7 8 5 5 2 3 2 7 2 7 9 11 27 30 27 25 23 18 15 16 21 22 21 22 21 27 35 39 40 41 43 44 41 38 34 34 35 32 31 26 22 26 25 25 27 29 29 29
3 3 5 2 2 3 7 6 6 3 6 5 4 20 29 31 28 25 20 19 19 20 21 22 24 26 27 31 38 43 45 45 42 45 43 43 40 39 38 36 32 31 31 31 29 30 30 32 31
6 5 2 2 1 5 5 3 10 5 7 7 9 18 28 30 32 32 30 27 26 27 27 26 29 30 32 33 36 40 40 44 43 43 46 44 45 42 43 44 40 38 38 35 33 33 33 35 36
9 10 5 6 4 4 4 6 6 8 8 17 19 20 19 28 30 34 34 32 30 30 32 31 30 30 31 32 35 33 36 39 40 42 45 50 47 46 43 47 44 42 39 37 36 36 37 39 37
5 8 8 4 1 2 4 6 8 7 8 5 8 12 18 27 32 32 34 35 33 33 34 34 32 31 31 31 31 33 35 37 39 41 45 48 46 38 39 42 42 41 38 37 38 40 41 41 39
9 6 3 1 5 5 4 4 5 6 8 6 4 13 19 20 25 29 31 34 36 34 33 34 34 32 32 32 33 34 35 35 36 37 38 40 40 39 40 40 38 37 37 37 38 38 36 30 30
3 9 3 5 5 6 2 5 8 10 9 9 8 18 18 19 21 24 28 30 33 36 36 35 36 37 37 37 36 35 36 37 38 40 41 41 41 42 42 41 39 37 35 41 38 39 34 29 38
4 7 12 10 4 3 4 10 4 9 7 6 12 17 17 17 18 18 22 24 27 30 34 39 39 40 40 38 37 36 37 40 41 42 41 41 42 41 44 45 43 36 28 42 41 33 37 35 33
Wind_Direction
130 143 100 181 56 68 286 263 279 281 248 242 303 305 247 273 216 223 311 313 242 189 197 198 197 195 187 191 185 176 164 165 164 166 170 171 168 164 161 159 157 156 151 147 140 134 129 121 114
132 136 108 96 81 50 281 262 234 234 243 297 254 230 249 264 237 264 273 285 255 216 199 199 195 191 188 187 181 173 167 168 166 165 167 170 173 167 163 162 159 154 150 147 137 131 127 118 109
120 137 108 90 113 169 223 233 248 246 287 239 245 248 231 233 238 252 265 272 238 217 208 193 193 190 189 181 177 171 171 171 169 165 172 171 173 167 166 163 160 155 153 137 136 134 126 115 106
130 130 67 88 232 246 205 248 238 301 273 239 231 281 242 231 250 263 246 257 260 215 211 198 192 187 186 184 177 177 173 174 171 165 171 172 168 166 166 161 157 154 153 140 134 132 126 116 106
135 79 58 24 262 265 255 273 284 221 228 167 197 252 245 221 242 295 282 238 240 225 216 213 207 182 186 186 184 181 176 176 173 170 171 168 166 165 165 160 156 156 149 140 135 129 126 120 109
84 91 66 249 253 269 263 274 266 220 237 226 246 254 244 230 256 292 272 256 228 227 234 229 210 204 188 181 186 185 180 179 177 170 170 169 166 167 165 161 160 156 150 140 133 134 132 123 115
129 90 205 241 275 302 248 329 244 258 206 244 229 248 263 235 284 267 276 255 213 209 211 230 222 213 197 194 198 186 182 180 176 175 172 170 169 169 168 165 161 158 150 140 134 134 133 125 117
154 94 157 248 227 271 252 301 275 229 258 228 202 231 260 280 303 320 268 233 191 181 192 211 234 232 229 216 197 198 188 186 186 181 173 173 168 169 166 164 159 159 151 143 134 130 129 126 114
157 67 225 241 188 250 285 277 259 245 248 245 218 236 259 291 292 276 288 249 198 196 187 230 240 246 231 220 225 206 186 180 175 177 171 163 165 164 163 163 161 161 158 151 142 134 134 125 120
125 147 225 208 203 256 287 249 266 216 234 256 243 247 255 253 250 260 252 207 210 208 218 219 200 193 213 225 213 193 180 177 171 176 168 169 165 161 161 160 161 163 162 161 148 139 138 130 137
176 213 219 257 256 264 265 283 216 177 258 237 230 246 224 237 231 243 251 231 215 211 215 191 180 203 228 232 198 182 187 177 174 174 170 164 163 162 162 158 159 159 163 163 155 154 144 140 141
183 244 231 280 286 301 250 267 246 207 237 334 227 228 205 245 233 248 260 228 218 213 207 187 186 180 189 242 198 189 177 173 172 181 171 168 166 165 165 162 160 156 157 158 160 151 150 143 143
198 260 267 265 291 289 279 249 244 252 252 245 160 167 229 227 230 250 253 242 214 205 207 200 195 187 168 140 146 173 165 163 169 174 173 172 167 169 169 164 164 159 158 160 158 148 141 150 147
215 256 285 293 288 278 220 263 138 278 234 190 179 189 223 219 226 255 244 235 211 210 204 206 199 194 186 141 155 152 161 160 169 176 178 175 171 174 171 169 169 166 163 164 162 144 138 147 148
243 291 311 280 262 236 202 294 232 259 243 207 193 214 206 226 244 251 235 208 227 203 201 207 200 197 188 160 154 157 162 161 168 175 177 175 178 179 175 176 175 173 173 175 166 158 156 151 159
309 74 352 283 270 300 153 278 312 270 228 214 205 196 199 226 238 225 215 219 231 199 195 196 199 190 178 169 167 168 166 165 175 178 175 185 184 181 183 186 180 181 188 183 176 171 176 171 170
346 229 229 310 297 111 172 279 161 174 236 241 224 194 183 205 226 212 198 196 223 205 196 192 191 184 176 176 172 170 168 172 177 179 182 185 190 189 191 188 189 195 196 190 196 189 193 194 196
202 217 246 250 306 346 260 266 289 188 212 251 240 197 189 203 213 213 206 187 197 193 195 196 190 183 182 177 176 180 171 180 184 181 180 181 190 204 195 195 195 198 205 206 206 213 212 207 218
157 174 232 265 256 318 277 280 285 176 210 237 239 214 203 198 208 205 195 194 196 191 192 191 202 189 186 186 181 176 179 184 189 186 184 190 197 199 199 200 201 202 215 218 220 225 220 227 233
171 244 264 286 288 190 301 299 291 189 225 219 227 229 210 199 201 203 196 196 188 189 188 200 203 199 199 195 186 180 186 188 186 192 188 201 196 197 200 202 203 213 217 220 229 235 236 235 239
199 214 228 228 347 277 273 295 294 279 221 209 234 241 223 209 201 196 203 196 195 195 196 192 198 199 196 193 181 180 185 186 191 188 191 204 198 201 204 205 211 221 229 234 242 246 246 250 252
218 194 230 253 65 248 69 288 278 273 281 203 213 230 225 215 216 210 209 201 197 200 203 194 188 194 194 187 188 184 187 191 195 198 195 201 200 204 211 216 224 232 237 242 248 253 255 255 254
232 155 195 212 206 330 273 274 268 318 279 258 202 214 223 216 216 216 216 207 200 200 201 197 193 193 193 198 199 190 193 198 203 199 208 208 211 215 222 227 228 242 247 250 253 254 255 258 259
118 153 207 120 142 231 219 194 272 244 229 279 251 221 221 214 215 217 219 210 207 205 205 201 196 195 199 194 199 197 199 203 205 204 213 217 224 230 228 227 238 248 256 255 255 258 260 262 263
169 100 289 311 198 225 205 189 247 251 249 231 250 245 226 219 210 213 213 212 205 203 204 203 203 198 198 201 204 205 209 213 217 218 218 221 224 230 233 234 243 250 255 261 260 259 261 266 265
201 175 166 202 202 226 137 233 251 239 257 266 271 264 231 217 214 212 213 213 211 205 203 202 203 202 203 204 206 206 213 218 221 222 222 224 227 237 235 236 246 251 259 263 263 265 265 267 268
188 197 189 102 49 67 229 283 305 291 311 308 282 215 218 217 219 216 214 215 215 211 210 207 205 205 207 209 212 215 218 222 225 226 226 229 235 235 234 240 248 254 259 264 268 267 269 272 268
187 174 114 359 189 229 258 249 222 300 297 305 268 232 228 227 221 223 221 219 219 220 218 216 216 215 215 214 215 217 219 222 226 228 231 233 237 240 245 251 257 262 267 269 269 271 271 266 264
156 220 198 171 165 190 200 247 206 226 250 267 263 243 235 230 233 232 233 233 227 223 223 224 224 222 223 223 223 225 227 229 232 236 239 242 247 251 257 259 259 262 268 273 275 272 263 263 263
306 243 213 224 228 227 217 237 213 218 225 215 253 269 249 246 244 237 236 237 237 236 233 230 229 229 229 229 231 235 238 237 237 240 245 248 254 261 264 266 265 264 262 268 274 269 260 264 256